Location: Unspecified
(0.0000°N, 0.0000°E)
Time: 06:44:31
(UTC+00:00)

Vanguard 2 Rocket - Pass Details

Date: 26 November 2019
Orbit: 554 x 3326 km, 32.9° (Epoch: 11 December)

Event Time Altitude Azimuth Distance (km) Brightness Sun altitude
Rises 06:49:16 0° 301° (WNW) 4,092 9.6 14.5°
Reaches altitude 10° 06:51:32 10° 300° (WNW) 3,391 9.3 15.0°
Maximum altitude 07:00:37 79° 214° (SW) 2,011 8.9 17.1°
Drops below altitude 10° 07:17:02 10° 129° (SE) 5,766 12.7 20.9°
Sets 07:22:13 0° 128° (SE) 7,052 12.8 22.1°
